Location: Marcé
(47.5801°N, 0.3280°W)
Time: 09:54:12
(UTC+01:00)

Explorer 7 - Pass Details

Date: 08 December 2021
Orbit: 483 x 674 km, 50.3° (Epoch: 24 January)

Event Time Altitude Azimuth Distance (km) Brightness Sun altitude
Rises 06:28:24 0° 252° (WSW) 2,859 - -20.6°
Reaches altitude 10° 06:30:46 10° 254° (WSW) 1,924 - -20.3°
Exits shadow 06:34:05 50° 261° (W) 736 7.0 -19.7°
Maximum altitude 06:35:10 82° 342° (NNW) 576 6.8 -19.5°
Drops below altitude 10° 06:39:17 10° 71° (ENE) 1,807 10.3 -18.9°
Sets 06:41:27 0° 72° (ENE) 2,669 11.3 -18.5°
